Previsão horária em Abadia

Hoje, 17 Abril, Sábado

Tempo Temperatura Precipitação Vento Pressão Humidade
00:00 +7°C° 0 mm 2 m/s 723 mmHg 49%
01:00 +6°C° 0 mm 2 m/s 723 mmHg 50%
02:00 +6°C° 0 mm 2 m/s 723 mmHg 50%
03:00 +5°C° 0 mm 2 m/s 723 mmHg 51%
04:00 +5°C° 0 mm 2 m/s 723 mmHg 50%
05:00 +4°C° 0 mm 2 m/s 723 mmHg 49%
06:00 +4°C° 0 mm 2 m/s 723 mmHg 48%
07:00 +6°C° 0 mm 2 m/s 723 mmHg 44%
08:00 +8°C° 0 mm 2 m/s 723 mmHg 39%
09:00 +12°C° 0 mm 2 m/s 724 mmHg 34%
10:00 +14°C° 0 mm 2 m/s 723 mmHg 33%
11:00 +15°C° 0 mm 2 m/s 723 mmHg 32%
12:00 +17°C° 0 mm 2 m/s 723 mmHg 30%
13:00 +17°C° 0 mm 2 m/s 722 mmHg 31%
14:00 +18°C° 0 mm 2 m/s 722 mmHg 31%
15:00 +18°C° 0 mm 3 m/s 722 mmHg 31%
16:00 +17°C° 0 mm 3 m/s 722 mmHg 37%
17:00 +16°C° 0 mm 3 m/s 722 mmHg 43%
18:00 +16°C° 0 mm 3 m/s 722 mmHg 49%
19:00 +13°C° 0 mm 3 m/s 722 mmHg 52%
20:00 +11°C° 0 mm 3 m/s 723 mmHg 56%
21:00 +9°C° 0 mm 3 m/s 723 mmHg 60%
22:00 +8°C° 0 mm 2 m/s 723 mmHg 60%
23:00 +8°C° 0 mm 2 m/s 723 mmHg 59%

Amanhã, 18 Abril, Domingo

Tempo Temperatura Precipitação Vento Pressão Humidade
00:00 +8°C° 0 mm 2 m/s 723 mmHg 59%
01:00 +7°C° 0 mm 2 m/s 723 mmHg 59%
02:00 +7°C° 0 mm 2 m/s 723 mmHg 60%
03:00 +7°C° 0 mm 2 m/s 723 mmHg 61%
04:00 +7°C° 0 mm 2 m/s 723 mmHg 61%
05:00 +6°C° 0 mm 2 m/s 723 mmHg 62%
06:00 +6°C° 0 mm 2 m/s 723 mmHg 62%
07:00 +10°C° 0 mm 1 m/s 724 mmHg 56%
08:00 +12°C° 0 mm 1 m/s 724 mmHg 50%
09:00 +14°C° 0 mm 1 m/s 724 mmHg 44%
10:00 +16°C° 0 mm 1 m/s 724 mmHg 41%
11:00 +18°C° 0 mm 1 m/s 724 mmHg 38%
12:00 +20°C° 0 mm 1 m/s 724 mmHg 35%
13:00 +20°C° 0 mm 1 m/s 723 mmHg 35%
14:00 +20°C° 0 mm 1 m/s 723 mmHg 35%
15:00 +20°C° 0 mm 1 m/s 723 mmHg 35%
16:00 +20°C° 0 mm 1 m/s 723 mmHg 42%
17:00 +19°C° 0 mm 1 m/s 723 mmHg 48%
18:00 +18°C° 0 mm 1 m/s 723 mmHg 55%
19:00 +16°C° 0 mm 1 m/s 723 mmHg 56%
20:00 +14°C° 0 mm 1 m/s 723 mmHg 58%
21:00 +12°C° 0 mm 1 m/s 723 mmHg 59%
22:00 +12°C° 0 mm 1 m/s 723 mmHg 59%
23:00 +12°C° 0 mm 1 m/s 723 mmHg 59%

Depois de amanhã, 19 Abril, Segunda-feira

Tempo Temperatura Precipitação Vento Pressão Humidade
00:00 +12°C° 0 mm 1 m/s 722 mmHg 59%
01:00 +12°C° 0 mm 1 m/s 722 mmHg 60%
02:00 +11°C° 0 mm 0 m/s 722 mmHg 60%
03:00 +11°C° 0 mm 0 m/s 722 mmHg 60%
04:00 +11°C° 0 mm 0 m/s 721 mmHg 60%
05:00 +11°C° 0 mm 0 m/s 721 mmHg 60%
06:00 +11°C° 0 mm 0 m/s 721 mmHg 60%
07:00 +14°C° 0 mm 1 m/s 721 mmHg 58%
08:00 +15°C° 0 mm 1 m/s 721 mmHg 55%
09:00 +16°C° 0 mm 1 m/s 722 mmHg 52%
10:00 +17°C° 0 mm 2 m/s 721 mmHg 50%
11:00 +18°C° 0 mm 2 m/s 721 mmHg 48%
12:00 +19°C° 0 mm 3 m/s 721 mmHg 46%
13:00 +19°C° 0.1 mm 3 m/s 721 mmHg 50%
14:00 +18°C° 0.1 mm 2 m/s 720 mmHg 54%
15:00 +18°C° 0.1 mm 2 m/s 720 mmHg 58%
16:00 +17°C° 0.1 mm 2 m/s 720 mmHg 62%
17:00 +17°C° 0.1 mm 2 m/s 719 mmHg 66%
18:00 +16°C° 0.1 mm 2 m/s 719 mmHg 70%
19:00 +15°C° 0.1 mm 2 m/s 719 mmHg 74%
20:00 +14°C° 0.1 mm 2 m/s 720 mmHg 78%
21:00 +12°C° 0.1 mm 2 m/s 720 mmHg 82%
22:00 +12°C° 0.1 mm 2 m/s 720 mmHg 85%
23:00 +10°C° 0.1 mm 2 m/s 720 mmHg 89%

20 Abril, Terça-feira

Tempo Temperatura Precipitação Vento Pressão Humidade
00:00 +9°C° 0.1 mm 2 m/s 720 mmHg 92%
01:00 +9°C° 0 mm 2 m/s 719 mmHg 93%
02:00 +8°C° 0 mm 2 m/s 719 mmHg 94%
03:00 +8°C° 0 mm 2 m/s 719 mmHg 94%
04:00 +8°C° 0 mm 2 m/s 719 mmHg 94%
05:00 +10°C° 0 mm 1 m/s 719 mmHg 93%
06:00 +10°C° 0 mm 1 m/s 719 mmHg 92%
07:00 +11°C° 0 mm 1 m/s 719 mmHg 86%
08:00 +12°C° 0 mm 1 m/s 719 mmHg 79%
09:00 +14°C° 0 mm 1 m/s 719 mmHg 73%
10:00 +15°C° 0 mm 2 m/s 719 mmHg 65%
11:00 +17°C° 0 mm 2 m/s 719 mmHg 57%
12:00 +18°C° 0 mm 2 m/s 718 mmHg 49%
13:00 +18°C° 0 mm 2 m/s 718 mmHg 48%
14:00 +19°C° 0 mm 2 m/s 718 mmHg 48%
15:00 +19°C° 0 mm 3 m/s 718 mmHg 47%
16:00 +18°C° 0 mm 2 m/s 718 mmHg 51%
17:00 +17°C° 0 mm 2 m/s 718 mmHg 55%
18:00 +17°C° 0 mm 2 m/s 718 mmHg 58%
19:00 +16°C° 0 mm 2 m/s 718 mmHg 63%
20:00 +14°C° 0 mm 2 m/s 718 mmHg 68%
21:00 +13°C° 0 mm 2 m/s 719 mmHg 73%
22:00 +12°C° 0 mm 2 m/s 719 mmHg 77%
23:00 +10°C° 0 mm 2 m/s 719 mmHg 81%

21 Abril, Quarta-feira

Tempo Temperatura Precipitação Vento Pressão Humidade
00:00 +9°C° 0 mm 2 m/s 719 mmHg 85%
01:00 +9°C° 0 mm 2 m/s 719 mmHg 86%
02:00 +9°C° 0 mm 2 m/s 719 mmHg 87%
03:00 +9°C° 0 mm 1 m/s 718 mmHg 89%
04:00 +9°C° 0 mm 1 m/s 719 mmHg 89%
05:00 +8°C° 0 mm 2 m/s 719 mmHg 89%
06:00 +8°C° 0 mm 2 m/s 719 mmHg 89%
07:00 +11°C° 0 mm 1 m/s 719 mmHg 81%
08:00 +13°C° 0 mm 1 m/s 719 mmHg 73%
09:00 +16°C° 0 mm 1 m/s 719 mmHg 64%
10:00 +18°C° 0.2 mm 1 m/s 719 mmHg 60%
11:00 +19°C° 0.2 mm 1 m/s 719 mmHg 55%
12:00 +20°C° 0.2 mm 1 m/s 719 mmHg 51%
13:00 +20°C° 0.2 mm 1 m/s 719 mmHg 51%
14:00 +20°C° 0.2 mm 1 m/s 719 mmHg 51%
15:00 +20°C° 0.2 mm 1 m/s 718 mmHg 50%
16:00 +18°C° 0.1 mm 2 m/s 718 mmHg 54%
17:00 +17°C° 0.1 mm 2 m/s 719 mmHg 58%
18:00 +17°C° 0.1 mm 2 m/s 719 mmHg 62%
19:00 +15°C° 0 mm 2 m/s 719 mmHg 64%
20:00 +14°C° 0 mm 2 m/s 720 mmHg 66%
21:00 +13°C° 0 mm 2 m/s 720 mmHg 68%
22:00 +12°C° 0 mm 2 m/s 720 mmHg 70%
23:00 +12°C° 0 mm 2 m/s 720 mmHg 71%

22 Abril, Quinta-feira

Tempo Temperatura Precipitação Vento Pressão Humidade
00:00 +10°C° 0 mm 2 m/s 720 mmHg 73%
01:00 +10°C° 0 mm 2 m/s 720 mmHg 74%
02:00 +11°C° 0 mm 1 m/s 720 mmHg 74%
03:00 +10°C° 0 mm 1 m/s 720 mmHg 75%
04:00 +10°C° 0 mm 1 m/s 720 mmHg 76%
05:00 +10°C° 0 mm 1 m/s 720 mmHg 77%
06:00 +10°C° 0 mm 1 m/s 721 mmHg 79%
07:00 +12°C° 0 mm 1 m/s 721 mmHg 72%
08:00 +14°C° 0 mm 1 m/s 721 mmHg 65%
09:00 +16°C° 0 mm 1 m/s 721 mmHg 58%
10:00 +17°C° 0.1 mm 2 m/s 721 mmHg 55%
11:00 +19°C° 0.1 mm 2 m/s 721 mmHg 52%
12:00 +20°C° 0.1 mm 2 m/s 721 mmHg 49%
13:00 +20°C° 0.1 mm 2 m/s 721 mmHg 49%
14:00 +20°C° 0.1 mm 2 m/s 721 mmHg 49%
15:00 +21°C° 0.1 mm 1 m/s 721 mmHg 50%
16:00 +20°C° 0.1 mm 1 m/s 721 mmHg 55%
17:00 +19°C° 0.1 mm 1 m/s 721 mmHg 60%
18:00 +18°C° 0.1 mm 1 m/s 721 mmHg 65%
19:00 +16°C° 0 mm 1 m/s 721 mmHg 67%
20:00 +15°C° 0 mm 1 m/s 721 mmHg 70%
21:00 +14°C° 0 mm 1 m/s 722 mmHg 72%
22:00 +13°C° 0 mm 1 m/s 721 mmHg 75%
23:00 +12°C° 0 mm 1 m/s 721 mmHg 77%
Mostrar mais

Necessitamos do seu Consentimento

A Meteoprog e os seus Fornecedores de Serviços podem armazenar e aceder a dados pessoais como cookies, identificadores do dispositivo ou outras tecnologias semelhantes existentes no seu dispositivo e processar estes dados para personalizar conteúdos e anúncios, assim como funcionalidades nas redes sociais e análise de tráfego.

  • Armazenar e/ou aceder a informações no seu dispositivo

    Os cookies, identificadores do dispositivo ou outras informações podem ser armazenados ou acedidos no seu dispositivo, para os fins acima indicados.

  • Anúncios e conteúdos personalizados, medição de anúncios e conteúdos, dados sobre o público-alvo e desenvolvimento de produtos

    Os anúncios e os conteúdos podem ser personalizados com base num perfil. Podem ser adicionados dados adicionais para uma maior personalização dos anúncios e dos conteúdos. A eficácia dos anúncios e dos conteúdos pode ser medida. Podem ser obtidas informações sobre o público que visualizou os anúncios e os conteúdos. Estes dados podem ser usados para desenvolver ou melhorar sistemas, softwares ou a experiência do utilizador.

Ao clicar em "Eu concordo”, permitirá o uso de cookies, identificadores do dispositivo e web beacons mencionados ou outras tecnologias semelhantes. As configurações do navegador do seu dispositivo podem ser alteradas.

Para certos fins, podem ser invocados interesses legítimos ao invés de consentimento. Pode ler mais informação sobre este assunto na nossa Política de Privacidade e Cookies.